Skip Page Navigation
NASA JPL Caltech
NASA Logo - Jet Propulsion Laboratory + View the NASA Portal
+ Center for Near-Earth Object Studies
JPL Home Earth Solar System Stars & Galaxies Technology
JPL Solar System Dynamics
BODIES ORBITS EPHEMERIDES TOOLS PHYSICAL DATA DISCOVERY FAQ SITE MAP
JPL Small-Body Database Browser
Search: [ help ]  
324315 (2006 DR198)
Classification: Main-belt Asteroid          SPK-ID: 2324315
Ephemeris | Orbit Diagram | Orbital Elements | Mission Design | Physical Parameters | Discovery Circumstances | Close-Approach Data ]

[ show orbit diagram ]
Orbital Elements at Epoch 2459000.5 (2020-May-31.0) TDB
Reference: JPL 9 (heliocentric ecliptic J2000)
 Element Value Uncertainty (1-sigma)   Units 
e .1385826838268881 1.2842e-07  
a 3.167078235715575 6.2753e-08 au
q 2.728176033920385 4.3282e-07 au
i 19.12322374389016 1.0183e-05 deg
node 32.77460806718114 2.6069e-05 deg
peri 158.0364035235407 3.7249e-05 deg
M 168.472144393621 3.0602e-05 deg
tp 2458037.087631455164
(2017-Oct-10.58763146)
0.000167 TDB
period 2058.669425289712
5.64
6.1186e-05
1.675e-07
d
yr
n .1748702319943077 5.1974e-09 deg/d
Q 3.605980437510765 7.145e-08 au
  Orbit Determination Parameters
   # obs. used (total)      207  
   data-arc span      4935 days (13.51 yr)  
   first obs. used      2003-09-26  
   last obs. used      2017-03-31  
   planetary ephem.      DE431  
   SB-pert. ephem.      SB431-N16  
   condition code      0  
   norm. resid. RMS      .62277  
   source      ORB  
   producer      Otto Matic  
   solution date      2017-Apr-10 11:08:43  

Additional Information
 Earth MOID = 1.73431 au 
 Jupiter MOID = 1.37289 au 
 T_jup = 3.103 
[ show covariance matrix ]

Ephemeris | Orbit Diagram | Orbital Elements | Mission Design | Physical Parameters | Discovery Circumstances | Close-Approach Data ]

Physical Parameter Table
Parameter Symbol Value Units Sigma Reference Notes
absolute magnitude H 15.4   n/a MPO310980  

324315 (2006 DR198)          Discovered 2006-Feb-27 by CSS at Catalina
Reference: 20120406/Numbers.arcLast Updated: 2012-04-09

[ hide close-approach data ]
Close-Approach Data   ...sorted by Date/Time (TDB)
Date/Time (TDB) Time Uncertainty
(days_HH:MM)
Body Nominal Distance (au) Minimum Distance (au) Maximum Distance (au) V-relative (km/s) V-infinity (km/s) JD (TDB) Time Uncertainty (minutes) Semi-major axis (km) Semi-minor axis (km) range-LOV angle (deg) N-sigma BP Orbit Ref. Reference Modified
1953-Apr-15 03:02 00:22 Jupiter 1.85599404072509 1.85598724852641 1.85600083296841 4.67709416473333 4.57847869004179 2434482.626272411 21.993610595728 632.977824452557 164.095561178383 -62.2465633662636 721533.028203952 T 9 CATAB v2.0e-lin.ifort 2017-Nov-25 10:01:15 2018-Dec-18 01:09
1964-Mar-26 10:22 00:13 Jupiter 1.43680040589347 1.43679870578302 1.4368021062727 4.79195150802907 4.6673075041278 2438480.931688408 12.6604861495149 1298.53479866619 53.8299478759219 86.9527273155661 1532025.21399964 T 9 CATAB v2.0e-lin.ifort 2017-Nov-25 10:01:15 2018-Dec-18 01:09
1975-Apr-09 19:44 00:10 Jupiter 1.55579241089143 1.55578933690511 1.55579548499935 4.55742775906305 4.43635938862009 2442512.322316790 9.50655715343129 762.721082606756 49.7781529780466 -80.232641131832 976615.615020752 T 9 CATAB v2.0e-lin.ifort 2017-Nov-25 10:01:15 2018-Dec-18 01:09
2083-Apr-13 20:27 00:17 Jupiter 1.58326820082973 1.5832629824021 1.58327342095823 4.76023543503848 4.64649052561405 2481963.352242238 16.839221134876 2693.77126686745 53.7675810029872 84.7543259837707 1679124.70261282 T 9 CATAB v2.0e-lin.ifort 2017-Nov-25 10:01:15 2018-Dec-18 01:09
2094-Apr-27 16:32 00:18 Jupiter 1.41559283716144 1.41559104468109 1.41559463005779 4.74582480711118 4.6180244162192 2485995.188982077 17.5527177147241 1559.97399013252 54.10824303408 -87.8202340836551 1399822.9798967 T 9 CATAB v2.0e-lin.ifort 2017-Nov-25 10:01:15 2018-Dec-18 01:09
2105-Apr-08 14:11 00:28 Jupiter 1.80674450883746 1.80673539260725 1.80675362746318 4.20589688609932 4.0929140857529 2489993.091311127 28.1076961894968 3402.56243980109 61.1617851436305 -83.3374330781957 773265.204524252 T 9 CATAB v2.0e-lin.ifort 2017-Nov-25 10:01:15 2018-Dec-18 01:09
Ephemeris | Orbit Diagram | Orbital Elements | Mission Design | Physical Parameters | Discovery Circumstances | Close-Approach Data ]
ABOUT SSD CREDITS/AWARDS PRIVACY/COPYRIGHT GLOSSARY LINKS
FirstGov 2020-Aug-10 09:27 UT
(server date/time)  
NASA Home Page
Site Manager:   Ryan S. Park
Webmaster  Alan B. Chamberlin